SL-8 DEB, 2934

Orbit data source: Space-Track

SL-8 DEB, 2934 is space debris in LEO originally from a launch on Mon, 15 Mar 1965 UTC launched from the Tyuratam Missile And Space Complex (TTMTR). Debris objects in space refer to the collection of defunct objects orbiting the Earth. Examples of debris include non-operational satellites, rocket bodies, and fragments generated from explosions, collisions, or faulty payload assembly.

Loading next visibility...
Identifier
2934, 1965-020EM
Orbit
LEO
Country
Flag of CISCIS
Related business
Manufacturer
Unknown
Mission
Spacecraft
Bus & Motor
Unknown
Mass
Unknown
Launch date (UTC)
1965-03-15 (61 years ago)
Launch vehicle
Unknown
Launch site
Tyuratam Missile And Space Complex (TTMTR)
Object type
Payload
Rocket body
Debris
Shape & HBR
Unknown
Radar Cross Section
Small (<0.1 m²)

Expand to show TLE details & history
Last TLE update: 2 days ago

TLE from 2 days ago
0 SL-8 DEB
1 02934U 65020EM  25259.55584785 -.00000310  00000-0 -11062-2 0  9999
2 02934  55.5939 196.6171 0352583 221.0269 316.5874 12.50899471667857
Epoch: 2025-09-16T13:20Z
TLE epoch observation values (Epoch: 2025-09-16T13:20:25.254Z)
Latitude
4.28092°
Longitude
177.84364°
Altitude
1,265.311 km
Speed
7.314 km/s
True Right ascension
00h 54m 46s
True Declination
4° 15' 26"
Sunlit
Object was in full shadow at epoch
Visualization orbit readout
Latitude
Unknown
Longitude
Unknown
Altitude
Unknown
Speed
Unknown
Apparent Right ascension
Unknown
Apparent Declination
Unknown
Sunlit
N/A
Visualization observer readout
Local Sidereal Time
23:21:23
Azimuth
Unknown
Elevation
Unknown
Doppler factor
Unknown
Orbital elements
Apogee altitude
1,737.002 km
Perigee altitude
1,184.24 km
Semi-major axis
7,838.758 km
Eccentricity
0.03526
Inclination
55.5939°
RAAN
196.6171°
Arg. of periapsis
221.0269°
True anomaly
313.7202°
Mean anomaly
316.5874°
Eccentric anomaly
315.16301°
Mean motion
3.12732 °/min
Orbital period
115.11 mins
BSTAR
-0.0011062
Loading maneuver chart data...
Computing Atmospheric mass density...
Loading historical data...
Loading historical data...
Loading historical data...
Loading historical data...
Loading historical data...
Loading historical data...
Loading historical data...

Documentation

Showing up to 5 results
|